Regional Weather Roundup
Issued by NWS

Home | Current Version | Previous Version | Text Only | Print | Product List | Glossary Off
Versions: 1 2 3 4 5 6 7 8 9 10 11 12 13 14 15 16 17 18 19 20 21 22 23 24 25 26 27 28 29 30 31 32 33 34 35 36 37 38 39 40 41 42 43 44 45 46 47 48 49 50

000
ASUS45 KSLC 180410
RWRUT

UTAH REGIONAL WEATHER ROUNDUP
NATIONAL WEATHER SERVICE SALT LAKE CITY UT
1000 PM MDT FRI APR 17 2015

UTZ001>011-023>025-180500-

NORTHERN UTAH

CITY           SKY/WX    TMP DP  RH WIND       PRES   REMARKS
BRIGHAM CITY   PTCLDY    57  36  45 CALM      30.03R
HILL AFB       PTCLDY    52  36  55 E17       30.04R
LOGAN          CLEAR     55  36  48 S10       30.02R
OGDEN          PTCLDY    53  37  54 E8        30.03R
PROVO AIRPORT  MOCLDY    55  36  47 NE3       30.04R
SALT LAKE CITY PTCLDY    53  37  54 SE9       30.03R
VERNAL         CLOUDY    46  32  58 NE10      30.04S
WENDOVER       CLEAR     57  21  24 NE5       30.04R
HEBER CITY     CLOUDY    45  37  76 N8        30.08S
WEST JORDAN    CLEAR     52  37  58 NE8       30.05R

$$

UTZ012>022-026-027-180500-

SOUTHERN/CENTRAL UTAH

CITY           SKY/WX    TMP DP  RH WIND       PRES   REMARKS
BLANDING       CLOUDY    33  33 100 NE3       30.12S
BRYCE CANYON   CLOUDY    39  28  64 NW7       30.10R WCI  34
CEDAR CITY     PTCLDY    44  29  55 NE6       30.07R
DELTA          CLEAR     49  29  44 CALM      30.05R
HANKSVILLE     CLOUDY    43  41  93 SW3       30.07S
MILFORD        PTCLDY    47  30  51 SE6       30.05R
MOAB/CYNLANDS  MOCLDY    40  39  97 E3        30.02R
PRICE          NOT AVBL
ST GEORGE      MOCLDY    61  27  27 S3        30.00R

$$

REGIONAL REPORTS     COLORADO/ARIZONA

CITY           SKY/WX    TMP DP  RH WIND       PRES   REMARKS
CRAIG, CO      MOCLDY    37  34  89 NW3       30.02R
GRAND JUNCTION CLOUDY    36  36 100 CALM      30.05R
RIFLE          CLOUDY    36  34  92 CALM      30.06S
MONTROSE       LGT SNOW  33  32  96 SE5       30.06R FOG     WCI  29
CORTEZ         LGT SNOW  34  33  96 NE6       30.05S FOG     WCI  29
PAGE, AZ       CLOUDY    57  31  37 CALM      30.00R
GRAND CANYON   MOCLDY    33  26  75 CALM      30.11R
KINGMAN        CLEAR     50  22  33 SE8       30.02R
FLAGSTAFF      PTCLDY    35  26  69 CALM      30.12R

$$

REGIONAL REPORTS    NEVADA/IDAHO/WYOMING

CITY           SKY/WX    TMP DP  RH WIND       PRES   REMARKS
LAS VEGAS, NV  CLEAR     74  15  10 SW14      29.88R
ELY            CLEAR     48  12  23 VRB3      30.11R
ELKO           CLEAR     55  18  23 N7        30.09R
POCATELLO, ID  CLEAR     54  25  32 SW14      30.05R
BURLEY         CLEAR     45  27  49 S8        30.03R
EVANSTON, WY   MOCLDY    39  31  72 E8        30.13R WCI  33
ROCK SPRINGS   CLOUDY    34  33  96 NE14      30.11S WCI  25
KEMMERER       PTCLDY    34  32  93 SW5       30.15R WCI  30

$$



USA.gov is the U.S. government's official web portal to all federal, state and local government web resources and services.